Duluth, MN

12:40 AM CDT on April 25, 2017 (GMT -0500)
Duluth International

Weather History for KDLH - June, 2013

Change the Weather History Date:

Thursday, June 27, 2013

  Actual Average Record
Temperature  
Mean Temperature 74 °F 63 °F  
Max Temperature 85 °F 74 °F 94 °F (1910)
Min Temperature 63 °F 53 °F 37 °F (1925)
Degree Days  
Heating Degree Days 0 4  
Month to date heating degree days 145 169  
Since 1 June heating degree days 145 169  
Since 1 July heating degree days 9365 9434  
Cooling Degree Days 9 2  
Month to date cooling degree days 46 23  
Year to date cooling degree days 47 27  
Since 1 June cooling degree days 46 23  
Growing Degree Days 24 (Base 50)    
Moisture  
Dew Point 58 °F    
Average Humidity 59    
Maximum Humidity 84    
Minimum Humidity 34    
Precipitation  
Precipitation T in 0.15 in 1.48 in (1965)
Month to date precipitation 4.26 3.77  
Year to date precipitation 17.60 12.69  
Snow  
Snow 0.00 in 0.00 in 0.00 in (2002)
Month to date snowfall 0.0 0.0  
Since 1 June snowfall 0.0 0.0  
Since 1 July snowfall 129.4 86.1  
Snow Depth 0.00 in    
Sea Level Pressure  
Sea Level Pressure 29.74 in    
Wind  
Wind Speed 11 mph (WNW)    
Max Wind Speed 24 mph    
Max Gust Speed 36 mph    
Visibility 10 miles    
Events Rain    
T = Trace of Precipitation, MM = Missing Value Source: NWS Daily Summary

Daily Weather History Graph

Daily Weather History Graph

Search for Another Location

Airport or City:

Trip Planner

Search our weather history database for the weather conditions in past years. The results will help you decide how hot, cold, wet, or windy it might be!

Date:

Astronomy

Jun. 27, 2013 Rise Set
Actual Time 5:16 AM CDT 9:07 PM CDT
Civil Twilight 4:36 AM CDT 9:46 PM CDT
Nautical Twilight 3:42 AM CDT 10:40 PM CDT
Astronomical Twilight 2:23 AM CDT 11:59 PM CDT
Moon 11:42 PM CDT (6/27) 10:38 AM CDT (6/27)
Length of Visible Light 17h 09m
Length of Day
15h 50m
Waning Gibbous, 76% of the Moon is Illuminated
Jun 27
Waning Gibbous
Jun 29
Last Quarter
Jul 8
New
Jul 15
First Quarter
Jul 22
Full

Hourly Weather History & Observations

Time (CDT) Temp. Heat Index Dew Point Humidity Pressure Visibility Wind Dir Wind Speed Gust Speed Precip Events Conditions
12:55 AM 66.9 °F - 61.0 °F 81% 29.77 in 10.0 mi West 6.9 mph - N/A   Scattered Clouds
1:55 AM 66.0 °F - 59.0 °F 78% 29.77 in 10.0 mi West 8.1 mph - N/A   Scattered Clouds
2:55 AM 63.0 °F - 57.0 °F 81% 29.77 in 10.0 mi West 8.1 mph - N/A   Partly Cloudy
3:55 AM 66.0 °F - 55.9 °F 70% 29.76 in 10.0 mi Calm Calm - N/A   Partly Cloudy
4:55 AM 69.1 °F - 60.1 °F 73% 29.78 in 10.0 mi West 9.2 mph - 0.00 in Rain Light Rain
5:55 AM 66.9 °F - 57.9 °F 73% 29.77 in 10.0 mi North 5.8 mph - 0.00 in   Scattered Clouds
6:55 AM 66.0 °F - 59.0 °F 78% 29.76 in 10.0 mi Calm Calm - N/A   Scattered Clouds
7:55 AM 72.0 °F - 60.1 °F 66% 29.76 in 10.0 mi Calm Calm - N/A   Scattered Clouds
8:55 AM 75.0 °F - 60.1 °F 60% 29.75 in 10.0 mi WSW 11.5 mph - N/A   Scattered Clouds
9:55 AM 78.1 °F - 62.1 °F 58% 29.74 in 10.0 mi West 10.4 mph - N/A   Partly Cloudy
10:55 AM 79.0 °F - 62.1 °F 56% 29.73 in 10.0 mi West 9.2 mph - N/A   Partly Cloudy
11:55 AM 82.9 °F 83.2 °F 60.1 °F 46% 29.72 in 10.0 mi West 12.7 mph 19.6 mph N/A   Partly Cloudy
12:55 PM 82.0 °F 81.6 °F 55.9 °F 41% 29.72 in 10.0 mi West 15.0 mph 26.5 mph N/A   Scattered Clouds
1:55 PM 84.9 °F 84.4 °F 59.0 °F 41% 29.71 in 10.0 mi WNW 16.1 mph 21.9 mph N/A   Scattered Clouds
2:55 PM 84.0 °F 83.0 °F 55.9 °F 38% 29.71 in 10.0 mi WNW 17.3 mph 26.5 mph N/A   Partly Cloudy
3:55 PM 84.0 °F 82.6 °F 54.0 °F 35% 29.71 in 10.0 mi WNW 16.1 mph 31.1 mph N/A   Scattered Clouds
4:55 PM 84.0 °F 82.6 °F 54.0 °F 35% 29.71 in 10.0 mi WNW 19.6 mph 29.9 mph N/A   Scattered Clouds
5:55 PM 82.0 °F - 51.1 °F 34% 29.72 in 10.0 mi WNW 19.6 mph 35.7 mph N/A   Scattered Clouds
6:55 PM 79.0 °F - 54.0 °F 42% 29.73 in 10.0 mi WNW 9.2 mph - N/A   Scattered Clouds
7:55 PM 73.0 °F - 55.0 °F 53% 29.75 in 10.0 mi West 13.8 mph - N/A   Partly Cloudy
8:55 PM 68.0 °F - 57.9 °F 70% 29.73 in 10.0 mi West 9.2 mph - N/A   Scattered Clouds
9:55 PM 66.0 °F - 57.0 °F 73% 29.73 in 10.0 mi West 12.7 mph - N/A   Scattered Clouds
10:55 PM 68.0 °F - 57.0 °F 68% 29.72 in 10.0 mi WNW 12.7 mph 20.7 mph N/A   Partly Cloudy
11:55 PM 66.0 °F - 57.0 °F 73% 29.72 in 10.0 mi WNW 6.9 mph - N/A   Partly Cloudy